PPDPC SBJD-SBDN

Flight info

Callsign PPDPC
Flight time 1h 32m
Altitude 24000
Route SCB DCT BRU DCT PRR
Aircraft PC12/L-SDFGRWY/S

Departure

Time 2026-04-25 01:20
Airport Comte. Rolim Adolfo Amaro–Jundiaí State Airport (SBJD)

Arrival

Time 2026-04-25 02:52
Airport Presidente Prudente Airport (SBDN)
Time Latitude Longitude Altitude Speed Heading
2026-04-25 01:05 -23.18543 -46.94041 2513 ft 0 kts 286°
2026-04-25 01:10 -23.18543 -46.94040 2515 ft 0 kts 286°
2026-04-25 01:13 -23.18543 -46.94044 2513 ft 3 kts 280°
2026-04-25 01:13 -23.18549 -46.94074 2514 ft 1 kts 253°
2026-04-25 01:13 -23.18548 -46.94078 2513 ft 1 kts 322°
2026-04-25 01:13 -23.18503 -46.94096 2514 ft 15 kts 338°
2026-04-25 01:14 -23.18377 -46.94155 2514 ft 24 kts 339°
2026-04-25 01:14 -23.18292 -46.94194 2514 ft 27 kts 336°
2026-04-25 01:14 -23.18213 -46.94231 2514 ft 13 kts 336°
2026-04-25 01:14 -23.18102 -46.94282 2514 ft 21 kts 336°
2026-04-25 01:15 -23.17949 -46.94356 2514 ft 25 kts 342°
2026-04-25 01:15 -23.17784 -46.94429 2514 ft 28 kts 336°
2026-04-25 01:15 -23.17602 -46.94517 2513 ft 23 kts 333°
2026-04-25 01:15 -23.17518 -46.94554 2512 ft 0 kts 336°
2026-04-25 01:18 -23.17513 -46.94556 2512 ft 4 kts 336°
2026-04-25 01:19 -23.17488 -46.94621 2513 ft 14 kts 262°
2026-04-25 01:19 -23.17547 -46.94641 2515 ft 0 kts 155°
2026-04-25 01:19 -23.17617 -46.94607 2511 ft 33 kts 156°
2026-04-25 01:19 -23.18001 -46.94431 2515 ft 84 kts 157°
2026-04-25 01:20 -23.18659 -46.94127 2577 ft 116 kts 156°
2026-04-25 01:20 -23.19386 -46.93698 2995 ft 118 kts 151°
2026-04-25 01:20 -23.19815 -46.92961 3384 ft 123 kts 98°
2026-04-25 01:20 -23.19762 -46.92025 3843 ft 126 kts 89°
2026-04-25 01:21 -23.19855 -46.91089 4339 ft 128 kts 99°
2026-04-25 01:21 -23.20024 -46.90030 4501 ft 162 kts 101°
2026-04-25 01:21 -23.20262 -46.88702 4507 ft 193 kts 102°
2026-04-25 01:21 -23.20540 -46.87190 4516 ft 213 kts 101°
2026-04-25 01:22 -23.20524 -46.85585 4708 ft 216 kts 73°
2026-04-25 01:22 -23.20176 -46.84027 5030 ft 210 kts 91°
2026-04-25 01:22 -23.20670 -46.82584 5515 ft 203 kts 129°
2026-04-25 01:22 -23.21837 -46.81802 5996 ft 198 kts 168°
2026-04-25 01:23 -23.23179 -46.81896 6500 ft 192 kts 196°
2026-04-25 01:23 -23.24353 -46.82510 6972 ft 187 kts 219°
2026-04-25 01:23 -23.25190 -46.83586 7359 ft 186 kts 244°
2026-04-25 01:23 -23.25714 -46.84860 7757 ft 187 kts 249°
2026-04-25 01:24 -23.26222 -46.86161 8176 ft 187 kts 248°
2026-04-25 01:24 -23.26788 -46.87443 8585 ft 188 kts 244°
2026-04-25 01:24 -23.27395 -46.88711 8994 ft 189 kts 244°
2026-04-25 01:24 -23.28007 -46.89982 9403 ft 190 kts 244°
2026-04-25 01:25 -23.28615 -46.91255 9819 ft 190 kts 244°
2026-04-25 01:25 -23.29225 -46.92536 10191 ft 191 kts 244°
2026-04-25 01:25 -23.29822 -46.93790 10533 ft 192 kts 243°
2026-04-25 01:25 -23.30438 -46.95082 10878 ft 193 kts 244°
2026-04-25 01:26 -23.31056 -46.96380 11211 ft 194 kts 244°
2026-04-25 01:26 -23.31679 -46.97689 11561 ft 194 kts 244°
2026-04-25 01:26 -23.32303 -46.99002 11889 ft 196 kts 244°
2026-04-25 01:26 -23.32931 -47.00320 12223 ft 196 kts 244°
2026-04-25 01:27 -23.33560 -47.01643 12558 ft 197 kts 244°
2026-04-25 01:27 -23.34192 -47.02970 12884 ft 198 kts 244°
2026-04-25 01:27 -23.34828 -47.04308 13214 ft 199 kts 244°
2026-04-25 01:28 -23.36108 -47.07002 13869 ft 201 kts 244°
2026-04-25 01:28 -23.36745 -47.08342 14144 ft 202 kts 244°
2026-04-25 01:28 -23.37393 -47.09707 14433 ft 203 kts 244°
2026-04-25 01:28 -23.38042 -47.11073 14712 ft 203 kts 244°
2026-04-25 01:29 -23.38692 -47.12443 15001 ft 204 kts 244°
2026-04-25 01:29 -23.39354 -47.13837 15293 ft 205 kts 245°
2026-04-25 01:29 -23.40008 -47.15215 15575 ft 205 kts 245°
2026-04-25 01:29 -23.40655 -47.16579 15856 ft 206 kts 245°
2026-04-25 01:30 -23.41312 -47.17965 16130 ft 206 kts 245°
2026-04-25 01:30 -23.41972 -47.19356 16405 ft 207 kts 245°
2026-04-25 01:30 -23.42634 -47.20754 16684 ft 207 kts 245°
2026-04-25 01:30 -23.43298 -47.22155 16960 ft 208 kts 245°
2026-04-25 01:31 -23.43963 -47.23559 17251 ft 209 kts 245°
2026-04-25 01:31 -23.44630 -47.24968 17518 ft 209 kts 245°
2026-04-25 01:31 -23.45290 -47.26362 17799 ft 210 kts 245°
2026-04-25 01:31 -23.45959 -47.27776 18063 ft 210 kts 246°
2026-04-25 01:32 -23.46630 -47.29195 18341 ft 211 kts 246°
2026-04-25 01:32 -23.47302 -47.30615 18577 ft 211 kts 246°
2026-04-25 01:32 -23.47978 -47.32043 18809 ft 212 kts 246°
2026-04-25 01:32 -23.48654 -47.33474 19042 ft 212 kts 246°
2026-04-25 01:33 -23.49331 -47.34907 19271 ft 213 kts 246°
2026-04-25 01:33 -23.49896 -47.36387 19476 ft 211 kts 259°
2026-04-25 01:33 -23.49968 -47.37952 19706 ft 210 kts 277°
2026-04-25 01:33 -23.49534 -47.39468 19925 ft 212 kts 296°
2026-04-25 01:34 -23.48699 -47.40796 20128 ft 214 kts 303°
2026-04-25 01:34 -23.47807 -47.42098 20353 ft 214 kts 304°
2026-04-25 01:34 -23.46919 -47.43403 20566 ft 215 kts 303°
2026-04-25 01:34 -23.46029 -47.44715 20782 ft 216 kts 303°
2026-04-25 01:35 -23.45134 -47.46032 20998 ft 216 kts 303°
2026-04-25 01:35 -23.44238 -47.47351 21208 ft 217 kts 303°
2026-04-25 01:35 -23.43337 -47.48675 21421 ft 217 kts 303°
2026-04-25 01:35 -23.42433 -47.50004 21638 ft 218 kts 303°
2026-04-25 01:36 -23.41529 -47.51333 21840 ft 219 kts 303°
2026-04-25 01:36 -23.40633 -47.52650 22046 ft 219 kts 303°
2026-04-25 01:36 -23.39722 -47.53988 22255 ft 220 kts 303°
2026-04-25 01:36 -23.38810 -47.55329 22461 ft 221 kts 303°
2026-04-25 01:37 -23.37894 -47.56674 22670 ft 221 kts 303°
2026-04-25 01:37 -23.36975 -47.58022 22873 ft 222 kts 303°
2026-04-25 01:37 -23.36054 -47.59374 23074 ft 222 kts 303°
2026-04-25 01:37 -23.35129 -47.60731 23272 ft 223 kts 303°
2026-04-25 01:38 -23.34203 -47.62090 23471 ft 224 kts 303°
2026-04-25 01:38 -23.33273 -47.63453 23654 ft 224 kts 302°
2026-04-25 01:38 -23.32341 -47.64820 23813 ft 225 kts 302°
2026-04-25 01:38 -23.31407 -47.66189 23971 ft 226 kts 302°
2026-04-25 01:39 -23.30479 -47.67549 24062 ft 231 kts 302°
2026-04-25 01:39 -23.29502 -47.68983 24064 ft 239 kts 303°
2026-04-25 01:39 -23.28501 -47.70447 24064 ft 242 kts 303°
2026-04-25 01:39 -23.27489 -47.71925 24063 ft 245 kts 303°
2026-04-25 01:40 -23.26469 -47.73419 24065 ft 247 kts 303°
2026-04-25 01:40 -23.25441 -47.74923 24062 ft 248 kts 303°
2026-04-25 01:40 -23.24409 -47.76433 24064 ft 249 kts 303°
2026-04-25 01:40 -23.23372 -47.77949 24061 ft 250 kts 303°
2026-04-25 01:41 -23.22683 -47.78957 24062 ft 250 kts 303°
2026-04-25 01:41 -23.21639 -47.80483 24063 ft 251 kts 303°
2026-04-25 01:41 -23.20595 -47.82007 24061 ft 251 kts 303°
2026-04-25 01:41 -23.19553 -47.83530 24061 ft 251 kts 303°
2026-04-25 01:42 -23.18519 -47.85040 24061 ft 251 kts 303°
2026-04-25 01:42 -23.17476 -47.86562 24059 ft 251 kts 303°
2026-04-25 01:42 -23.16431 -47.88087 24057 ft 251 kts 303°
2026-04-25 01:42 -23.15388 -47.89609 24056 ft 251 kts 303°
2026-04-25 01:43 -23.14342 -47.91135 24055 ft 251 kts 303°
2026-04-25 01:43 -23.13296 -47.92661 24056 ft 252 kts 303°
2026-04-25 01:43 -23.12250 -47.94186 24056 ft 252 kts 303°
2026-04-25 01:43 -23.11202 -47.95713 24056 ft 252 kts 303°
2026-04-25 01:44 -23.10168 -47.97219 24057 ft 252 kts 303°
2026-04-25 01:44 -23.09108 -47.98763 24057 ft 252 kts 303°
2026-04-25 01:44 -23.08060 -48.00289 24054 ft 252 kts 303°
2026-04-25 01:44 -23.07028 -48.01791 24053 ft 252 kts 303°
2026-04-25 01:45 -23.05978 -48.03320 24052 ft 252 kts 303°
2026-04-25 01:45 -23.04930 -48.04844 24054 ft 252 kts 303°
2026-04-25 01:45 -23.03882 -48.06368 24052 ft 252 kts 303°
2026-04-25 01:45 -23.02835 -48.07891 24053 ft 252 kts 303°
2026-04-25 01:46 -23.01786 -48.09416 24050 ft 252 kts 303°
2026-04-25 01:46 -23.00737 -48.10939 24053 ft 252 kts 303°
2026-04-25 01:46 -22.99690 -48.12460 24054 ft 252 kts 303°
2026-04-25 01:46 -22.98655 -48.13963 24052 ft 252 kts 303°
2026-04-25 01:47 -22.97608 -48.15483 24054 ft 251 kts 303°
2026-04-25 01:47 -22.96561 -48.17003 24054 ft 252 kts 303°
2026-04-25 01:47 -22.95513 -48.18525 24055 ft 252 kts 303°
2026-04-25 01:47 -22.94462 -48.20049 24056 ft 252 kts 303°
2026-04-25 01:48 -22.93414 -48.21569 24054 ft 252 kts 303°
2026-04-25 01:48 -22.92362 -48.23093 24054 ft 252 kts 303°
2026-04-25 01:48 -22.91311 -48.24616 24052 ft 252 kts 303°
2026-04-25 01:48 -22.90262 -48.26136 24052 ft 252 kts 303°
2026-04-25 01:49 -22.89212 -48.27657 24055 ft 252 kts 303°
2026-04-25 01:49 -22.88160 -48.29180 24053 ft 252 kts 303°
2026-04-25 01:49 -22.87108 -48.30704 24054 ft 252 kts 303°
2026-04-25 01:49 -22.86056 -48.32226 24052 ft 252 kts 303°
2026-04-25 01:50 -22.85000 -48.33753 24049 ft 252 kts 303°
2026-04-25 01:50 -22.83947 -48.35276 24054 ft 253 kts 303°
2026-04-25 01:50 -22.82892 -48.36801 24053 ft 252 kts 303°
2026-04-25 01:50 -22.81839 -48.38323 24054 ft 252 kts 304°
2026-04-25 01:51 -22.80786 -48.39846 24054 ft 252 kts 303°
2026-04-25 01:51 -22.79733 -48.41367 24054 ft 252 kts 304°
2026-04-25 01:51 -22.78680 -48.42887 24054 ft 252 kts 304°
2026-04-25 01:51 -22.77628 -48.44407 24051 ft 252 kts 304°
2026-04-25 01:52 -22.76574 -48.45927 24056 ft 252 kts 304°
2026-04-25 01:52 -22.75520 -48.47448 24053 ft 253 kts 304°
2026-04-25 01:52 -22.74463 -48.48973 24047 ft 253 kts 304°
2026-04-25 01:52 -22.73408 -48.50495 24049 ft 253 kts 304°
2026-04-25 01:53 -22.72351 -48.52018 24051 ft 253 kts 304°
2026-04-25 01:53 -22.71296 -48.53538 24053 ft 253 kts 304°
2026-04-25 01:53 -22.70253 -48.55041 24052 ft 253 kts 304°
2026-04-25 01:53 -22.69195 -48.56565 24052 ft 253 kts 304°
2026-04-25 01:54 -22.68137 -48.58088 24053 ft 253 kts 304°
2026-04-25 01:54 -22.67076 -48.59616 24050 ft 254 kts 304°
2026-04-25 01:54 -22.66015 -48.61142 24050 ft 254 kts 304°
2026-04-25 01:54 -22.64954 -48.62669 24049 ft 254 kts 304°
2026-04-25 01:55 -22.63894 -48.64194 24049 ft 254 kts 304°
2026-04-25 01:55 -22.62830 -48.65724 24051 ft 254 kts 304°
2026-04-25 01:55 -22.61767 -48.67252 24049 ft 254 kts 304°
2026-04-25 01:55 -22.60706 -48.68777 24048 ft 254 kts 304°
2026-04-25 01:56 -22.59641 -48.70307 24049 ft 254 kts 304°
2026-04-25 01:56 -22.58575 -48.71838 24049 ft 254 kts 304°
2026-04-25 01:56 -22.57511 -48.73365 24045 ft 255 kts 304°
2026-04-25 01:56 -22.56444 -48.74897 24044 ft 255 kts 304°
2026-04-25 01:57 -22.54309 -48.77960 24050 ft 255 kts 304°
2026-04-25 01:57 -22.53242 -48.79490 24049 ft 255 kts 304°
2026-04-25 01:57 -22.52174 -48.81021 24047 ft 255 kts 304°
2026-04-25 01:58 -22.51109 -48.82547 24050 ft 255 kts 304°
2026-04-25 01:58 -22.50040 -48.84079 24052 ft 255 kts 304°
2026-04-25 01:58 -22.48975 -48.85606 24051 ft 255 kts 304°
2026-04-25 01:58 -22.47907 -48.87134 24052 ft 255 kts 304°
2026-04-25 01:59 -22.46840 -48.88662 24053 ft 255 kts 304°
2026-04-25 01:59 -22.45772 -48.90191 24055 ft 255 kts 304°
2026-04-25 01:59 -22.44703 -48.91720 24059 ft 255 kts 304°
2026-04-25 01:59 -22.43635 -48.93249 24060 ft 255 kts 304°
2026-04-25 02:00 -22.42566 -48.94777 24061 ft 255 kts 304°
2026-04-25 02:00 -22.41496 -48.96307 24065 ft 255 kts 304°
2026-04-25 02:00 -22.40425 -48.97837 24067 ft 255 kts 304°
2026-04-25 02:00 -22.39355 -48.99365 24067 ft 255 kts 304°
2026-04-25 02:01 -22.38285 -49.00893 24067 ft 255 kts 304°
2026-04-25 02:01 -22.37213 -49.02425 24069 ft 255 kts 304°
2026-04-25 02:01 -22.36151 -49.03940 24068 ft 255 kts 304°
2026-04-25 02:01 -22.35080 -49.05469 24068 ft 256 kts 304°
2026-04-25 02:02 -22.34007 -49.07001 24065 ft 256 kts 304°
2026-04-25 02:02 -22.32933 -49.08533 24068 ft 256 kts 304°
2026-04-25 02:02 -22.31934 -49.10112 24067 ft 253 kts 295°
2026-04-25 02:02 -22.31384 -49.11896 24073 ft 251 kts 279°
2026-04-25 02:03 -22.31245 -49.13766 24079 ft 250 kts 272°
2026-04-25 02:03 -22.31152 -49.15644 24082 ft 250 kts 273°
2026-04-25 02:03 -22.31054 -49.17501 24075 ft 250 kts 273°
2026-04-25 02:03 -22.30955 -49.19383 24075 ft 251 kts 273°
2026-04-25 02:04 -22.30857 -49.21263 24075 ft 251 kts 273°
2026-04-25 02:04 -22.30758 -49.23144 24069 ft 251 kts 273°
2026-04-25 02:04 -22.30660 -49.25028 24068 ft 251 kts 273°
2026-04-25 02:04 -22.30561 -49.26910 24065 ft 251 kts 273°
2026-04-25 02:05 -22.30462 -49.28793 24064 ft 251 kts 273°
2026-04-25 02:05 -22.30368 -49.30675 24062 ft 251 kts 273°
2026-04-25 02:05 -22.30282 -49.32557 24056 ft 251 kts 272°
2026-04-25 02:05 -22.30204 -49.34443 24056 ft 251 kts 272°
2026-04-25 02:06 -22.30133 -49.36300 24051 ft 251 kts 272°
2026-04-25 02:06 -22.30069 -49.38187 24052 ft 251 kts 272°
2026-04-25 02:06 -22.30011 -49.40068 24047 ft 251 kts 272°
2026-04-25 02:06 -22.29961 -49.41952 24045 ft 251 kts 271°
2026-04-25 02:07 -22.29917 -49.43840 24046 ft 251 kts 271°
2026-04-25 02:07 -22.29881 -49.45726 24045 ft 251 kts 271°
2026-04-25 02:07 -22.29852 -49.47610 24043 ft 251 kts 271°
2026-04-25 02:07 -22.29830 -49.49493 24041 ft 251 kts 270°
2026-04-25 02:08 -22.29814 -49.51376 24042 ft 251 kts 270°
2026-04-25 02:08 -22.29806 -49.53260 24041 ft 251 kts 270°
2026-04-25 02:08 -22.29804 -49.55140 24042 ft 251 kts 270°
2026-04-25 02:08 -22.29809 -49.57027 24041 ft 251 kts 270°
2026-04-25 02:09 -22.29815 -49.58909 24038 ft 251 kts 270°
2026-04-25 02:09 -22.29821 -49.60790 24040 ft 251 kts 270°
2026-04-25 02:09 -22.29826 -49.62672 24039 ft 251 kts 270°
2026-04-25 02:09 -22.29830 -49.64555 24038 ft 251 kts 270°
2026-04-25 02:10 -22.29835 -49.66436 24039 ft 251 kts 270°
2026-04-25 02:10 -22.29839 -49.68318 24039 ft 251 kts 270°
2026-04-25 02:10 -22.29842 -49.70199 24037 ft 250 kts 270°
2026-04-25 02:10 -22.29845 -49.72078 24038 ft 250 kts 270°
2026-04-25 02:11 -22.29847 -49.73957 24040 ft 250 kts 270°
2026-04-25 02:11 -22.29849 -49.75836 24041 ft 250 kts 270°
2026-04-25 02:11 -22.29852 -49.77713 24039 ft 250 kts 270°
2026-04-25 02:11 -22.29855 -49.79594 24038 ft 250 kts 270°
2026-04-25 02:12 -22.29858 -49.81448 24041 ft 250 kts 270°
2026-04-25 02:12 -22.29862 -49.83352 24036 ft 250 kts 270°
2026-04-25 02:12 -22.29866 -49.85231 24035 ft 250 kts 270°
2026-04-25 02:12 -22.29868 -49.87113 24035 ft 250 kts 270°
2026-04-25 02:13 -22.29868 -49.88992 24033 ft 250 kts 270°
2026-04-25 02:13 -22.29869 -49.90872 24034 ft 250 kts 270°
2026-04-25 02:13 -22.29869 -49.92725 24032 ft 250 kts 270°
2026-04-25 02:13 -22.29868 -49.94626 24034 ft 250 kts 270°
2026-04-25 02:14 -22.29866 -49.96500 24033 ft 250 kts 270°
2026-04-25 02:14 -22.29864 -49.98379 24033 ft 250 kts 270°
2026-04-25 02:14 -22.29862 -50.00256 24032 ft 250 kts 270°
2026-04-25 02:14 -22.29859 -50.02106 24033 ft 250 kts 270°
2026-04-25 02:15 -22.29856 -50.03978 24033 ft 250 kts 270°
2026-04-25 02:15 -22.29854 -50.05858 24032 ft 250 kts 270°
2026-04-25 02:15 -22.29852 -50.07730 24032 ft 249 kts 270°
2026-04-25 02:15 -22.29849 -50.09602 24031 ft 249 kts 270°
2026-04-25 02:16 -22.29846 -50.11474 24027 ft 249 kts 270°
2026-04-25 02:16 -22.29842 -50.13346 24029 ft 249 kts 270°
2026-04-25 02:16 -22.29837 -50.15218 24029 ft 249 kts 270°
2026-04-25 02:16 -22.29833 -50.17089 24029 ft 249 kts 270°
2026-04-25 02:17 -22.29828 -50.18958 24028 ft 249 kts 270°
2026-04-25 02:17 -22.29823 -50.20829 24032 ft 249 kts 270°
2026-04-25 02:17 -22.29817 -50.22700 24029 ft 249 kts 270°
2026-04-25 02:17 -22.29811 -50.24568 24025 ft 249 kts 270°
2026-04-25 02:18 -22.29805 -50.26439 24023 ft 249 kts 270°
2026-04-25 02:18 -22.29798 -50.28310 24027 ft 249 kts 270°
2026-04-25 02:18 -22.29791 -50.30178 24028 ft 249 kts 270°
2026-04-25 02:18 -22.29783 -50.32047 24024 ft 249 kts 270°
2026-04-25 02:19 -22.29776 -50.33917 24021 ft 249 kts 270°
2026-04-25 02:19 -22.29768 -50.35787 24018 ft 249 kts 270°
2026-04-25 02:19 -22.29759 -50.37655 24018 ft 249 kts 270°
2026-04-25 02:19 -22.29749 -50.39521 24023 ft 249 kts 270°
2026-04-25 02:20 -22.29738 -50.41389 24024 ft 249 kts 270°
2026-04-25 02:20 -22.29727 -50.43254 24027 ft 249 kts 270°
2026-04-25 02:20 -22.29716 -50.45098 24020 ft 249 kts 270°
2026-04-25 02:20 -22.29705 -50.46990 24026 ft 249 kts 270°
2026-04-25 02:21 -22.29694 -50.48849 24022 ft 249 kts 270°
2026-04-25 02:21 -22.29683 -50.50703 24021 ft 249 kts 270°
2026-04-25 02:21 -22.29671 -50.52572 24022 ft 249 kts 270°
2026-04-25 02:21 -22.29660 -50.54441 24003 ft 249 kts 270°
2026-04-25 02:22 -22.29648 -50.56382 23363 ft 264 kts 270°
2026-04-25 02:22 -22.29629 -50.58364 22601 ft 263 kts 270°
2026-04-25 02:22 -22.29610 -50.60333 21861 ft 262 kts 270°
2026-04-25 02:22 -22.29590 -50.62295 21133 ft 260 kts 271°
2026-04-25 02:23 -22.29572 -50.64244 20431 ft 259 kts 271°
2026-04-25 02:23 -22.29554 -50.66187 19739 ft 258 kts 271°
2026-04-25 02:23 -22.29536 -50.68112 19185 ft 253 kts 271°
2026-04-25 02:23 -22.29520 -50.69978 18743 ft 245 kts 271°
2026-04-25 02:24 -22.29505 -50.71795 18301 ft 239 kts 271°
2026-04-25 02:24 -22.29491 -50.73573 17788 ft 235 kts 271°
2026-04-25 02:24 -22.29476 -50.75325 17283 ft 232 kts 270°
2026-04-25 02:24 -22.29460 -50.77057 16792 ft 229 kts 271°
2026-04-25 02:25 -22.29441 -50.78772 16307 ft 228 kts 271°
2026-04-25 02:25 -22.29422 -50.80477 15828 ft 227 kts 270°
2026-04-25 02:25 -22.29401 -50.82174 15354 ft 225 kts 271°
2026-04-25 02:25 -22.29378 -50.83867 14806 ft 228 kts 271°
2026-04-25 02:26 -22.29351 -50.85597 14175 ft 234 kts 271°
2026-04-25 02:26 -22.29322 -50.87375 13465 ft 239 kts 271°
2026-04-25 02:26 -22.29292 -50.89184 12718 ft 242 kts 271°
2026-04-25 02:26 -22.29263 -50.91011 11984 ft 244 kts 271°
2026-04-25 02:27 -22.29234 -50.92842 11269 ft 244 kts 271°
2026-04-25 02:27 -22.29207 -50.94665 10570 ft 243 kts 271°
2026-04-25 02:27 -22.29180 -50.96486 9880 ft 241 kts 271°
2026-04-25 02:27 -22.29155 -50.98291 9135 ft 240 kts 271°
2026-04-25 02:28 -22.29132 -51.00044 8684 ft 227 kts 271°
2026-04-25 02:28 -22.29118 -51.01156 8386 ft 220 kts 271°
2026-04-25 02:28 -22.29098 -51.02767 7947 ft 210 kts 271°
2026-04-25 02:28 -22.29080 -51.04323 7511 ft 204 kts 271°
2026-04-25 02:29 -22.29064 -51.05811 7093 ft 200 kts 271°
2026-04-25 02:29 -22.29049 -51.07295 6717 ft 194 kts 271°
2026-04-25 02:29 -22.29038 -51.08710 6483 ft 183 kts 271°
2026-04-25 02:29 -22.29029 -51.10056 6240 ft 175 kts 271°
2026-04-25 02:30 -22.29023 -51.11348 5995 ft 169 kts 271°
2026-04-25 02:30 -22.29020 -51.12601 5747 ft 165 kts 271°
2026-04-25 02:30 -22.29020 -51.13826 5505 ft 161 kts 271°
2026-04-25 02:30 -22.29026 -51.15029 5266 ft 159 kts 271°
2026-04-25 02:31 -22.29035 -51.16221 5023 ft 158 kts 271°
2026-04-25 02:31 -22.29048 -51.17409 4790 ft 160 kts 271°
2026-04-25 02:31 -22.29067 -51.18676 4555 ft 176 kts 271°
2026-04-25 02:31 -22.29084 -51.20037 4317 ft 186 kts 271°
2026-04-25 02:32 -22.29099 -51.21463 4085 ft 193 kts 271°
2026-04-25 02:32 -22.29114 -51.22898 4000 ft 184 kts 271°
2026-04-25 02:32 -22.29128 -51.24205 3992 ft 165 kts 271°
2026-04-25 02:32 -22.29145 -51.25404 3990 ft 157 kts 270°
2026-04-25 02:33 -22.29160 -51.26596 3994 ft 161 kts 271°
2026-04-25 02:33 -22.29177 -51.27818 3998 ft 164 kts 271°
2026-04-25 02:33 -22.29191 -51.29060 4001 ft 167 kts 270°
2026-04-25 02:33 -22.29205 -51.30322 4003 ft 169 kts 271°
2026-04-25 02:34 -22.29218 -51.31600 4007 ft 171 kts 271°
2026-04-25 02:34 -22.29228 -51.32888 4010 ft 173 kts 271°
2026-04-25 02:34 -22.29237 -51.34173 4010 ft 174 kts 271°
2026-04-25 02:34 -22.29245 -51.35495 4009 ft 174 kts 271°
2026-04-25 02:35 -22.29251 -51.36781 4009 ft 173 kts 270°
2026-04-25 02:35 -22.29647 -51.37987 4020 ft 172 kts 227°
2026-04-25 02:35 -22.30674 -51.38565 4017 ft 171 kts 192°
2026-04-25 02:35 -22.31716 -51.39122 4005 ft 170 kts 224°
2026-04-25 02:36 -22.32213 -51.40251 4012 ft 170 kts 268°
2026-04-25 02:36 -22.31839 -51.41417 4016 ft 168 kts 314°
2026-04-25 02:36 -22.30828 -51.41965 4018 ft 165 kts 352°
2026-04-25 02:36 -22.29687 -51.42073 4018 ft 165 kts 358°
2026-04-25 02:37 -22.28538 -51.42146 4020 ft 166 kts 358°
2026-04-25 02:37 -22.27385 -51.42219 4021 ft 166 kts 358°
2026-04-25 02:37 -22.26233 -51.42292 4024 ft 166 kts 358°
2026-04-25 02:37 -22.25074 -51.42363 4023 ft 167 kts 358°
2026-04-25 02:38 -22.23916 -51.42433 4023 ft 167 kts 358°
2026-04-25 02:38 -22.22755 -51.42503 4024 ft 167 kts 358°
2026-04-25 02:38 -22.21592 -51.42573 4022 ft 167 kts 358°
2026-04-25 02:38 -22.20430 -51.42614 4022 ft 167 kts 360°
2026-04-25 02:39 -22.19267 -51.42638 4024 ft 167 kts 360°
2026-04-25 02:39 -22.18103 -51.42661 4021 ft 167 kts 360°
2026-04-25 02:39 -22.16940 -51.42683 4022 ft 167 kts 360°
2026-04-25 02:39 -22.15776 -51.42706 4023 ft 167 kts 360°
2026-04-25 02:40 -22.14613 -51.42734 4022 ft 166 kts 356°
2026-04-25 02:40 -22.13596 -51.43268 4027 ft 168 kts 311°
2026-04-25 02:40 -22.13216 -51.44444 4022 ft 170 kts 273°
2026-04-25 02:40 -22.13212 -51.45716 4021 ft 170 kts 270°
2026-04-25 02:41 -22.13272 -51.46989 4021 ft 170 kts 262°
2026-04-25 02:41 -22.13476 -51.48243 4022 ft 170 kts 260°
2026-04-25 02:41 -22.13409 -51.49479 4019 ft 167 kts 292°
2026-04-25 02:41 -22.12938 -51.50621 4022 ft 167 kts 294°
2026-04-25 02:42 -22.12527 -51.51793 4021 ft 167 kts 292°
2026-04-25 02:42 -22.12024 -51.52920 4018 ft 167 kts 298°
2026-04-25 02:42 -22.11485 -51.54017 4016 ft 168 kts 298°
2026-04-25 02:42 -22.10937 -51.55130 4016 ft 168 kts 299°
2026-04-25 02:43 -22.10378 -51.56263 4011 ft 169 kts 298°
2026-04-25 02:43 -22.09823 -51.57383 4008 ft 170 kts 298°
2026-04-25 02:43 -22.09277 -51.58495 4008 ft 170 kts 298°
2026-04-25 02:43 -22.08731 -51.59624 4006 ft 170 kts 298°
2026-04-25 02:44 -22.08195 -51.60752 4002 ft 169 kts 297°
2026-04-25 02:44 -22.07819 -51.61933 4006 ft 169 kts 269°
2026-04-25 02:44 -22.08263 -51.63078 3987 ft 171 kts 223°
2026-04-25 02:44 -22.09237 -51.63789 3998 ft 169 kts 209°
2026-04-25 02:45 -22.10306 -51.64320 3999 ft 170 kts 199°
2026-04-25 02:45 -22.11420 -51.64757 4001 ft 171 kts 199°
2026-04-25 02:45 -22.12556 -51.65134 4001 ft 171 kts 191°
2026-04-25 02:45 -22.13729 -51.65370 4000 ft 171 kts 189°
2026-04-25 02:46 -22.14899 -51.65468 4002 ft 167 kts 166°
2026-04-25 02:46 -22.15789 -51.64799 3972 ft 155 kts 120°
2026-04-25 02:46 -22.16088 -51.63668 3609 ft 160 kts 97°
2026-04-25 02:46 -22.16175 -51.62456 3241 ft 164 kts 88°
2026-04-25 02:47 -22.16137 -51.61228 3005 ft 159 kts 87°
2026-04-25 02:47 -22.16098 -51.60100 3000 ft 144 kts 87°
2026-04-25 02:47 -22.16063 -51.59057 2994 ft 135 kts 87°
2026-04-25 02:47 -22.16025 -51.58034 3009 ft 136 kts 87°
2026-04-25 02:48 -22.15988 -51.57023 3012 ft 134 kts 88°
2026-04-25 02:48 -22.15990 -51.56018 3013 ft 133 kts 90°
2026-04-25 02:48 -22.16001 -51.55021 3014 ft 132 kts 90°
2026-04-25 02:48 -22.16063 -51.54034 3014 ft 132 kts 94°
2026-04-25 02:49 -22.16142 -51.53051 3017 ft 131 kts 94°
2026-04-25 02:49 -22.16239 -51.52124 3007 ft 112 kts 97°
2026-04-25 02:49 -22.16350 -51.51332 2877 ft 102 kts 97°
2026-04-25 02:49 -22.16459 -51.50581 2738 ft 101 kts 97°
2026-04-25 02:50 -22.16566 -51.49844 2618 ft 98 kts 96°
2026-04-25 02:50 -22.16675 -51.49111 2481 ft 100 kts 97°
2026-04-25 02:50 -22.16780 -51.48371 2359 ft 101 kts 97°
2026-04-25 02:50 -22.16860 -51.47606 2282 ft 102 kts 91°
2026-04-25 02:51 -22.16880 -51.46828 2141 ft 107 kts 93°
2026-04-25 02:51 -22.16970 -51.46023 2012 ft 106 kts 103°
2026-04-25 02:51 -22.17117 -51.45255 1764 ft 105 kts 99°
2026-04-25 02:51 -22.17206 -51.44514 1679 ft 97 kts 98°
2026-04-25 02:52 -22.17316 -51.43786 1541 ft 97 kts 99°
2026-04-25 02:52 -22.17411 -51.43104 1447 ft 81 kts 99°
2026-04-25 02:52 -22.17475 -51.42674 1466 ft 33 kts 98°
2026-04-25 02:52 -22.17505 -51.42445 1476 ft 29 kts 100°
2026-04-25 02:53 -22.17552 -51.42252 1479 ft 26 kts 133°
2026-04-25 02:53 -22.17677 -51.42132 1485 ft 21 kts 136°
2026-04-25 02:53 -22.17740 -51.42035 1485 ft 7 kts 187°
2026-04-25 02:53 -22.17765 -51.42058 1485 ft 4 kts 289°
2026-04-25 02:54 -22.17760 -51.42059 1485 ft 1 kts 76°